Probability
3 2 2 2 1 0 0 0 0 0 0 0 0 0 0 0 0 0 0 0 0 0 0 1 1 1 0 0 1 1 1 0 0 0 0 0 1 2 1 0 0 0 0 0 0 0 0 0 0
1 1 1 1 1 0 0 0 0 0 0 0 0 0 0 0 0 0 0 0 0 0 0 0 0 0 0 0 0 0 0 0 0 0 0 0 1 1 1 0 0 0 0 0 0 0 0 0 0
0 0 0 0 0 0 0 0 0 0 0 0 0 0 0 0 0 0 0 0 0 0 0 0 0 0 0 0 0 0 0 0 0 0 0 0 0 0 0 0 0 0 0 0 0 0 0 0 0
0 0 0 0 0 0 0 0 0 0 0 0 0 0 0 0 0 0 0 0 0 0 0 0 0 0 0 0 0 0 0 0 0 0 0 0 0 0 0 0 0 0 0 0 0 0 0 0 0
0 0 0 0 0 0 0 0 0 0 0 0 0 0 0 0 0 0 0 0 0 0 0 0 0 0 0 0 0 0 0 0 0 0 0 0 0 0 0 0 0 0 0 0 0 0 0 0 0
0 0 0 0 0 0 0 0 0 0 0 0 0 0 0 0 0 0 0 0 0 0 0 0 0 0 0 0 0 0 0 0 0 0 0 0 0 0 0 0 0 0 0 0 0 0 0 0 0
0 0 0 0 0 0 0 0 0 0 0 0 0 0 0 0 0 0 0 1 1 0 0 0 0 0 0 0 0 0 0 0 0 0 0 0 0 0 0 0 0 0 0 0 0 0 0 0 0
0 0 0 0 0 0 0 0 0 0 0 0 0 0 0 0 0 0 1 2 2 1 0 0 0 0 0 0 0 0 0 0 0 0 0 0 0 0 0 0 0 0 0 0 0 0 0 0 0
0 0 0 0 0 0 0 0 0 0 0 0 1 0 0 0 0 0 1 2 2 1 0 0 0 0 0 0 0 0 0 0 0 0 0 0 0 0 0 0 0 0 0 0 0 0 0 0 0
0 0 0 0 0 0 0 0 0 0 0 0 0 0 0 0 0 0 0 1 1 0 0 0 0 0 0 0 0 0 0 0 0 0 0 0 0 0 0 0 0 0 0 0 0 0 0 0 0
0 0 1 0 0 0 0 0 0 0 0 0 0 0 0 0 0 0 0 0 0 0 0 0 0 0 0 0 0 0 0 0 0 0 0 0 0 0 0 0 0 0 0 0 0 0 0 0 0
0 0 0 0 0 0 0 0 0 0 0 0 0 0 0 0 0 0 0 0 0 0 0 0 0 0 0 0 0 0 0 0 0 0 0 0 0 0 0 0 0 0 0 0 0 0 0 0 0
0 0 0 0 0 0 0 0 0 0 0 0 0 0 0 0 0 0 0 0 0 0 0 0 0 0 0 0 0 0 0 0 0 0 0 0 0 0 0 0 0 0 0 0 0 0 0 0 0
0 0 0 0 0 0 0 0 0 0 0 0 0 0 0 0 0 0 0 0 0 1 1 1 0 0 0 0 0 0 0 0 0 0 0 0 0 0 0 0 0 0 0 0 0 0 0 0 0
0 0 0 0 0 0 0 0 0 0 0 0 0 0 0 0 0 0 0 1 1 1 2 1 0 0 0 0 0 0 0 0 0 0 0 0 0 0 0 0 0 0 0 0 0 0 0 0 0
0 0 0 0 0 0 0 0 0 0 0 1 1 1 0 0 0 0 0 0 0 1 1 1 0 0 0 0 0 0 0 0 0 0 0 0 0 0 0 0 0 0 0 0 0 0 0 0 0
0 0 0 0 0 0 0 0 0 0 0 1 1 1 0 0 0 0 0 0 0 0 0 0 0 0 0 0 0 0 0 0 0 0 0 0 0 0 0 0 0 0 0 0 0 0 0 0 0
0 0 0 0 0 0 0 0 0 1 0 0 0 0 0 0 0 0 0 0 0 0 0 0 0 0 0 0 0 0 0 0 0 0 0 0 0 0 0 0 0 0 0 0 0 0 0 0 0
0 0 0 0 0 0 0 0 0 0 0 0 0 0 0 0 0 0 0 0 0 0 0 0 0 0 0 0 0 0 0 0 0 0 0 0 0 0 0 0 0 0 0 0 0 0 0 0 0
0 0 0 0 0 0 0 0 0 0 0 0 0 0 0 0 0 0 0 1 0 0 0 0 0 0 0 0 0 0 0 0 0 0 0 0 0 0 0 0 0 0 0 0 0 0 0 0 0
0 0 0 0 0 0 0 0 0 0 0 0 0 0 0 0 0 0 0 0 0 0 0 0 0 0 0 0 0 0 0 0 0 0 0 0 0 0 0 0 0 0 0 0 0 0 0 0 0
0 0 0 0 0 0 0 0 0 0 0 0 0 0 0 0 0 1 1 0 0 0 0 0 0 0 0 0 0 0 0 0 0 0 0 0 0 0 0 0 0 0 0 0 0 0 0 0 0
0 0 0 0 0 0 0 0 0 0 0 0 0 0 0 0 0 1 2 1 0 0 0 0 0 0 0 0 0 0 0 0 0 0 0 0 0 0 0 0 0 0 0 0 0 0 0 0 0
0 0 0 0 0 0 0 0 0 0 0 0 0 1 1 1 0 1 2 1 1 0 0 0 0 0 0 0 0 0 0 0 0 0 0 0 0 0 0 0 0 0 0 0 0 0 0 0 0
0 0 0 0 0 0 0 0 0 0 0 1 0 1 2 2 1 0 1 3 3 2 0 0 0 0 0 0 0 0 0 0 0 0 0 0 0 0 0 0 0 0 0 0 0 0 0 0 0
0 0 0 0 0 0 0 0 0 0 0 0 0 1 2 3 1 0 1 4 5 4 2 0 0 0 0 0 0 0 0 0 0 0 0 0 0 0 0 0 0 0 0 0 0 0 0 0 0
0 0 0 0 0 0 0 0 0 0 0 0 0 1 2 3 2 0 1 4 6 6 4 1 0 0 0 0 0 0 0 0 0 0 0 0 0 0 0 0 0 0 0 0 0 0 0 0 0
0 0 0 0 0 0 0 0 0 0 0 0 0 1 2 3 2 1 1 3 5 6 5 2 1 0 0 0 0 0 0 0 0 0 1 1 1 0 0 0 0 0 0 0 0 0 0 0 0
0 0 0 0 0 0 0 0 0 0 0 0 0 1 2 3 2 1 1 2 3 4 4 3 1 0 0 0 0 0 0 0 0 0 1 2 2 1 0 0 0 0 0 0 0 0 0 0 0
0 0 0 0 0 0 0 0 0 0 0 0 0 1 2 3 2 1 2 2 3 4 3 2 1 0 0 0 0 0 0 0 0 0 1 3 2 1 0 0 0 0 0 0 0 0 0 0 0
Wind_Speed
8 8 6 2 2 2 2 4 7 6 7 8 10 11 13 13 10 9 2 5 10 11 10 11 12 13 13 13 13 13 12 12 12 12 12 11 11 11 11 11 11 11 10 10 10 10 9 9 8
9 5 3 3 3 1 4 6 9 8 8 6 10 13 13 11 11 9 4 6 11 12 10 11 12 13 13 13 13 13 13 12 12 12 11 11 11 10 10 10 10 10 10 10 9 9 9 9 8
11 6 4 3 2 2 5 7 9 9 7 7 9 11 9 7 9 6 6 8 12 12 11 11 13 13 14 13 13 13 12 12 12 11 11 11 10 10 10 10 9 9 9 9 9 9 9 8 8
5 3 4 2 3 7 7 8 8 9 7 8 10 10 9 8 7 8 8 11 12 12 11 10 13 13 13 13 12 12 12 11 11 11 11 10 10 10 10 9 9 9 9 9 9 8 8 8 7
3 4 3 1 5 8 7 7 7 7 7 10 12 11 10 9 10 10 9 10 11 12 11 11 12 13 12 12 11 11 11 10 10 10 9 9 9 10 10 9 9 9 9 8 8 8 8 7 7
3 3 3 2 6 7 6 5 6 9 10 11 12 11 8 8 9 8 8 8 10 11 11 10 12 12 12 11 10 10 9 9 9 8 7 7 7 8 8 9 9 9 8 7 7 7 7 6 5
3 4 3 3 5 6 5 4 6 8 9 8 9 10 8 8 7 7 8 7 7 9 9 9 9 10 11 11 9 8 8 7 6 5 4 4 5 6 7 8 8 8 7 6 6 5 5 4 4
3 3 2 3 5 5 5 5 6 8 8 7 7 9 9 9 8 7 7 6 6 6 6 7 8 9 9 8 8 7 6 5 3 2 2 2 3 4 7 7 6 6 5 4 4 3 2 2 1
4 3 2 2 4 5 7 7 6 7 9 8 9 12 13 13 10 8 6 5 4 5 5 5 6 6 7 8 8 7 6 4 3 4 5 3 2 3 4 6 5 3 2 1 0 1 2 2 3
3 1 1 2 5 7 8 8 7 7 10 11 13 14 14 11 10 9 7 7 6 5 5 5 5 5 4 5 4 2 2 2 1 1 1 0 2 2 4 5 4 3 2 2 4 5 5 5 2
1 1 3 6 7 8 8 7 6 8 8 11 14 14 12 11 9 8 7 7 6 5 5 5 5 5 5 3 3 2 1 1 2 2 3 3 2 1 2 2 3 3 3 2 2 3 2 1 1
2 4 5 6 6 6 7 6 6 7 9 11 13 13 11 10 8 7 8 7 6 6 4 4 5 5 5 4 3 2 2 2 2 3 3 3 1 1 1 1 1 1 1 1 1 1 2 3 3
3 5 7 6 6 6 7 7 8 10 11 12 13 11 9 9 8 6 7 8 8 5 4 5 5 6 6 3 2 4 3 2 2 2 3 3 2 1 2 2 2 2 2 1 2 3 4 4 5
5 7 7 6 6 6 8 8 7 10 11 12 11 9 7 6 7 7 6 8 8 6 6 5 5 4 4 3 3 3 3 2 3 3 3 3 2 2 2 2 2 2 2 2 2 3 3 2 3
8 7 5 4 5 6 6 6 8 11 12 11 10 9 8 6 6 6 6 7 7 7 6 5 4 5 5 5 4 3 3 3 3 3 4 3 3 3 4 3 3 3 3 3 3 4 3 2 3
6 5 4 3 4 5 4 5 8 10 11 9 8 8 6 5 6 6 6 6 7 7 7 5 4 6 5 4 3 3 3 3 3 3 4 5 5 5 4 3 3 3 3 3 2 3 3 3 3
5 5 6 5 4 4 4 6 8 9 10 9 8 8 7 6 6 5 6 6 6 7 7 5 4 5 4 3 3 3 3 3 3 4 4 5 6 6 4 3 3 4 3 3 4 4 3 2 2
6 6 6 6 5 5 5 6 8 8 9 8 8 8 8 8 7 7 6 5 5 7 7 6 5 5 4 2 3 3 3 3 3 3 3 5 5 6 4 3 5 5 3 3 3 3 3 2 2
3 4 5 5 6 5 6 7 9 8 8 8 9 9 9 8 8 7 6 6 5 5 7 7 6 5 3 2 2 2 2 2 2 3 4 4 4 5 3 3 4 4 3 3 4 3 3 3 2
5 5 5 5 6 5 5 6 8 9 9 9 9 9 9 9 8 8 7 6 6 6 6 6 6 5 5 2 2 2 2 2 3 3 3 4 4 5 4 4 3 3 3 4 4 3 3 2 3
4 5 5 5 5 4 4 4 7 9 10 9 9 8 9 10 10 10 9 7 6 6 6 6 6 6 5 4 2 3 2 1 2 2 1 2 3 4 4 4 3 2 3 2 3 3 3 2 3
2 4 5 5 4 4 6 3 7 10 10 10 9 8 8 9 9 9 9 8 7 7 6 6 6 6 6 5 3 3 3 2 2 2 2 2 3 2 3 3 3 3 3 2 2 3 2 2 2
2 4 4 5 4 4 5 3 5 10 11 11 11 10 9 9 9 10 9 8 8 7 6 5 6 6 6 5 3 1 2 2 2 2 2 3 2 2 2 2 2 3 3 3 3 3 3 3 2
3 4 3 4 3 4 6 4 4 8 11 12 12 12 10 9 9 9 9 8 7 7 6 5 6 5 5 5 5 3 3 2 3 2 2 2 2 1 2 1 1 2 2 3 2 2 3 2 3
5 3 2 3 3 4 6 5 4 7 10 11 11 12 11 10 9 9 9 8 8 8 7 6 6 6 6 5 5 5 4 4 4 3 3 2 2 2 2 2 1 2 2 2 2 2 2 2 2
5 5 3 2 2 3 5 3 3 5 5 8 9 10 10 10 9 9 9 9 8 9 8 7 7 7 7 6 5 5 5 3 2 3 3 2 2 2 3 2 2 2 2 2 2 1 1 2 2
4 5 5 4 2 1 4 4 5 6 6 6 8 9 10 9 9 10 9 9 9 9 8 7 7 7 7 6 5 4 4 4 3 3 2 2 2 3 3 3 3 2 2 1 1 1 1 2 2
5 4 3 2 1 1 2 3 4 7 7 7 7 8 8 9 9 9 9 9 9 8 7 7 7 7 6 6 5 4 3 4 3 2 2 2 2 3 3 2 2 2 2 2 2 1 1 1 1
6 5 3 2 2 1 0 1 3 5 5 6 7 7 7 8 8 8 8 8 8 8 7 6 6 6 6 6 5 5 4 4 4 2 2 2 2 3 3 3 2 2 2 2 2 1 1 1 1
5 3 1 1 3 1 1 1 4 5 4 5 6 6 7 7 7 7 8 8 7 7 7 7 6 6 5 5 4 4 5 4 4 4 3 3 3 3 3 3 2 2 2 1 2 1 0 1 1
Wind_Direction
263 233 222 227 249 231 71 74 91 85 71 56 57 69 68 51 57 90 125 101 99 98 97 90 87 87 85 83 82 81 79 76 73 73 72 70 68 67 66 65 63 62 60 56 52 47 46 45 46
270 243 237 235 252 191 81 83 83 76 89 85 67 71 74 68 75 94 109 98 97 94 88 88 89 87 84 82 82 81 78 76 72 72 71 69 67 66 65 64 62 61 59 55 50 47 47 46 45
261 251 251 247 289 65 94 93 97 92 84 82 79 63 58 68 77 94 118 108 95 93 89 88 90 88 84 81 80 80 78 75 72 70 69 66 65 65 65 64 61 59 58 55 51 50 48 45 44
256 240 240 249 48 64 96 112 116 109 87 80 88 75 64 59 88 115 120 108 103 100 96 91 91 90 87 83 80 79 77 73 71 68 66 65 65 64 63 59 57 59 58 54 51 50 49 47 45
243 254 250 169 81 81 86 100 107 98 88 82 85 90 85 78 98 107 106 106 106 106 106 105 100 96 92 87 81 79 77 74 70 67 65 64 64 62 61 59 58 59 57 55 53 51 49 48 44
260 256 254 161 107 99 92 90 97 97 97 97 99 101 92 99 99 100 100 99 105 111 115 117 114 107 99 90 83 79 76 73 71 69 68 66 70 70 67 61 58 60 58 55 54 53 49 49 43
271 280 263 139 120 114 112 103 95 101 97 89 102 102 110 108 104 100 93 92 100 113 126 135 134 122 111 101 93 90 87 84 85 85 86 90 94 90 82 70 61 60 58 55 54 56 52 50 43
287 285 258 143 131 111 114 104 86 92 90 94 106 113 124 129 122 109 103 106 111 119 124 131 136 139 135 124 119 123 121 124 132 149 175 166 153 127 99 86 73 65 62 59 55 51 48 42 4
273 262 259 119 128 120 130 113 91 94 98 82 75 98 122 132 132 125 123 121 116 124 134 132 131 132 133 134 141 156 157 169 190 209 224 218 187 151 118 99 109 93 77 68 327 286 269 253 246
244 290 358 78 110 129 135 123 130 122 109 102 99 107 126 139 141 142 142 137 135 135 127 125 128 122 105 101 124 143 127 146 169 85 97 136 89 82 98 132 153 173 203 245 254 258 256 245 230
281 51 59 77 104 127 128 127 136 130 123 126 128 131 139 143 146 144 137 124 119 115 110 118 112 108 110 101 102 92 94 71 43 35 67 43 39 94 120 164 180 206 209 242 249 259 260 222 150
98 88 88 97 108 122 126 132 118 106 111 124 130 138 143 150 147 146 133 123 120 107 101 100 108 104 91 88 104 95 69 62 45 12 45 53 22 31 53 70 43 80 77 348 332 336 19 19 31
115 101 98 103 112 115 113 110 107 108 115 122 133 143 150 149 144 136 129 126 117 118 111 84 77 88 94 86 80 86 61 53 74 9 30 48 27 38 53 62 28 34 33 23 12 23 38 25 21
113 110 112 114 110 110 114 116 119 125 130 132 141 147 144 142 140 139 138 133 135 132 115 105 96 92 106 104 86 84 97 76 54 9 28 50 42 45 49 60 40 34 32 27 36 38 37 40 37
131 126 116 125 132 136 129 124 133 141 142 144 150 149 147 153 152 152 141 136 132 128 120 108 103 83 71 66 64 77 66 72 57 20 8 27 43 48 43 36 37 21 24 33 32 39 21 42 42
166 160 145 148 156 157 160 140 140 153 153 154 154 147 149 160 164 147 133 130 125 122 114 109 103 95 81 72 58 68 61 54 59 39 12 13 33 57 47 25 28 32 30 29 32 42 29 32 36
201 175 155 157 177 173 174 145 154 166 162 160 155 153 162 176 166 147 143 140 132 128 125 126 110 103 103 112 101 71 73 53 57 48 22 12 20 41 55 21 22 37 34 21 31 34 28 28 29
183 167 164 160 173 179 161 146 157 171 169 169 164 168 176 177 172 153 143 135 137 138 131 124 114 117 125 116 95 80 63 64 65 63 40 23 20 26 35 32 35 35 38 24 33 35 23 19 12
189 164 157 148 151 167 167 165 169 177 179 179 178 182 183 178 166 151 150 145 152 146 136 134 142 140 127 101 101 109 102 86 70 72 49 36 36 23 32 40 44 38 45 36 37 29 17 22 14
162 159 154 143 155 171 178 178 173 178 187 192 192 190 184 173 164 155 161 161 168 152 144 145 146 133 119 114 124 116 105 99 89 67 51 41 42 20 24 46 55 55 56 38 28 33 16 3 16
170 173 172 161 155 175 179 190 183 184 190 196 204 201 184 175 168 167 171 167 164 156 153 149 145 137 137 141 102 93 87 93 111 108 83 54 56 37 12 26 39 46 68 55 34 38 37 5 357
169 162 170 176 181 193 200 189 194 186 187 194 199 206 188 179 169 167 169 166 166 165 159 156 155 148 143 141 146 163 157 141 129 126 131 113 77 58 22 24 23 42 65 56 31 45 21 32 357
159 160 181 203 221 221 212 213 197 181 187 191 193 198 191 184 172 169 167 166 167 160 158 158 151 142 137 137 138 161 130 136 120 113 124 122 108 90 61 27 26 35 56 63 52 43 27 34 24
178 189 206 226 241 241 221 216 201 191 191 189 189 190 187 183 175 169 163 160 157 147 151 152 142 134 139 155 160 165 145 139 133 138 139 150 142 122 103 65 39 50 54 54 48 50 49 43 25
211 209 211 205 210 226 213 208 189 191 185 186 184 182 180 175 174 168 161 162 154 153 160 157 149 151 161 179 174 167 170 174 168 165 162 174 148 132 120 98 60 57 61 63 43 38 27 48 40
215 216 230 238 208 197 202 188 143 158 163 174 172 170 173 174 172 170 165 161 158 162 168 169 166 167 172 186 182 173 172 175 163 171 172 166 141 137 131 128 121 96 67 66 60 38 13 35 37
250 232 245 275 260 190 171 143 133 140 151 158 161 166 172 172 169 165 162 160 161 167 173 172 170 170 177 187 181 178 167 164 167 184 161 145 146 141 137 148 137 127 106 67 57 40 44 31 18
247 278 278 267 299 224 172 156 149 149 154 159 161 165 169 168 167 162 159 160 163 166 169 168 171 173 176 178 179 165 166 165 161 162 148 142 140 135 141 142 143 145 139 121 76 31 26 49 34
213 228 248 280 263 244 121 91 112 138 151 153 153 158 166 162 160 158 154 157 157 155 160 166 171 170 171 174 172 163 168 168 156 151 152 157 158 154 155 156 152 141 133 133 118 95 31 360 336
268 259 230 278 293 289 101 76 111 117 119 132 137 150 153 152 151 150 148 151 155 157 162 170 172 167 167 165 162 164 164 165 162 166 176 180 177 170 162 149 144 135 123 124 132 161 140 312 328